Weather History for KPKB - January, 2013

Change the Weather History Date:

Friday, January 25, 2013

  Actual Average Record
Temperature  
Mean Temperature 18 °F 32 °F  
Max Temperature 23 °F 40 °F 78 °F (1950)
Min Temperature 12 °F 23 °F -9 °F (1936)
Degree Days  
Heating Degree Days 47 33  
Month to date heating degree days 787 840  
Cooling Degree Days 0 0  
Month to date cooling degree days 0 0  
Year to date cooling degree days 0 0  
Moisture  
Dew Point 13 °F    
Average Humidity 67    
Maximum Humidity 84    
Minimum Humidity 49    
Precipitation  
Precipitation 0.12 in 0.10 in 0.21 in (2010)
Month to date precipitation 1.44 2.37  
Year to date precipitation 1.44 2.37  
Sea Level Pressure  
Sea Level Pressure 30.18 in    
Wind  
Wind Speed 4 mph (SE)    
Max Wind Speed 14 mph    
Max Gust Speed 20 mph    
Visibility 6 miles    
Events Fog , Snow    
T = Trace of Precipitation, MM = Missing Value Source: NWS Daily Summary

Daily Weather History Graph

Daily Weather History Graph

Search for Another Location

Airport or City:

Trip Planner

Search our weather history database for the weather conditions in past years. The results will help you decide how hot, cold, wet, or windy it might be!

Date:

Astronomy

Jan. 25, 2013 Rise Set
Actual Time 7:38 AM EST 5:38 PM EST
Civil Twilight 7:09 AM EST 6:07 PM EST
Nautical Twilight 6:37 AM EST 6:39 PM EST
Astronomical Twilight 6:05 AM EST 7:11 PM EST
Moon 4:34 PM EST (1/25) 6:17 AM EST (1/25)
Length of Visible Light 10h 57m
Length of Day
9h 59m
Waxing Gibbous, 98% of the Moon is Illuminated
Jan 25
Waxing Gibbous
Jan 26
Full
Feb 3
Last Quarter
Feb 10
New
Feb 17
First Quarter

Hourly Weather History & Observations

Time (EST) Temp. Windchill Dew Point Humidity Pressure Visibility Wind Dir Wind Speed Gust Speed Precip Events Conditions
12:53 AM 15.1 °F - 9.0 °F 77% 30.52 in 8.0 mi Calm Calm - N/A   Clear
1:53 AM 12.9 °F - 8.1 °F 81% 30.51 in 8.0 mi Calm Calm - N/A   Clear
2:53 AM 12.9 °F - 9.0 °F 84% 30.49 in 7.0 mi Calm Calm - N/A   Clear
3:53 AM 17.1 °F 8.7 °F 7.0 °F 65% 30.46 in 10.0 mi East 5.8 mph - N/A   Overcast
4:53 AM 18.0 °F 6.9 °F 6.1 °F 60% 30.42 in 10.0 mi ENE 9.2 mph - N/A   Overcast
5:53 AM 18.0 °F 9.8 °F 6.1 °F 60% 30.38 in 10.0 mi East 5.8 mph - N/A   Overcast
6:53 AM 17.1 °F 5.0 °F 6.1 °F 62% 30.30 in 10.0 mi East 10.4 mph - N/A   Overcast
7:53 AM 18.0 °F 12.7 °F 5.0 °F 57% 30.32 in 10.0 mi ENE 3.5 mph - N/A   Overcast
8:53 AM 19.0 °F 9.0 °F 3.9 °F 52% 30.27 in 10.0 mi East 8.1 mph - N/A   Overcast
9:53 AM 19.0 °F 7.5 °F 3.9 °F 52% 30.25 in 10.0 mi ENE 10.4 mph - N/A   Overcast
10:53 AM 19.9 °F 14.9 °F 6.1 °F 55% 30.23 in 10.0 mi East 3.5 mph - N/A   Overcast
11:22 AM 19.4 °F 11.5 °F 6.8 °F 58% 30.16 in 2.0 mi ESE 5.8 mph - 0.00 in Snow Light Snow
11:26 AM 19.4 °F 10.4 °F 8.6 °F 63% 30.16 in 0.8 mi SE 6.9 mph - 0.00 in Snow Light Snow
11:39 AM 17.6 °F 10.7 °F 12.2 °F 79% 30.14 in 0.5 mi East 4.6 mph - 0.01 in Snow Snow
11:53 AM 18.0 °F 11.1 °F 12.9 °F 81% 30.17 in 0.5 mi ENE 4.6 mph - 0.02 in Snow Snow
12:16 PM 19.4 °F - 14.0 °F 80% 30.12 in 0.2 mi Calm Calm - 0.02 in Snow Heavy Snow
12:35 PM 19.4 °F - 14.0 °F 80% 30.12 in 0.5 mi Calm Calm - 0.04 in Snow Snow
12:53 PM 19.0 °F - 15.1 °F 85% 30.15 in 0.5 mi Calm Calm - 0.05 in Fog , Snow Light Snow
1:15 PM 19.4 °F 14.3 °F 14.0 °F 80% 30.10 in 0.8 mi NE 3.5 mph - 0.01 in Snow Light Snow
1:31 PM 19.4 °F - 15.8 °F 86% 30.09 in 0.5 mi Calm Calm - 0.02 in Fog , Snow Snow
1:40 PM 19.4 °F - 15.8 °F 86% 30.09 in 0.2 mi Calm Calm - 0.03 in Fog , Snow Snow
1:43 PM 19.4 °F - 15.8 °F 86% 30.09 in 0.2 mi Calm Calm - 0.04 in Fog , Snow Snow
1:53 PM 19.9 °F - 15.1 °F 81% 30.12 in 0.2 mi Calm Calm - 0.04 in Snow Heavy Snow
1:56 PM 19.4 °F - 15.8 °F 86% 30.08 in 0.5 mi Calm Calm - 0.00 in Snow Snow
2:00 PM 19.4 °F - 15.8 °F 86% 30.07 in 0.5 mi Calm Calm - 0.00 in Snow Snow
2:24 PM 19.4 °F - 15.8 °F 86% 30.06 in 1.0 mi Calm Calm - 0.01 in Snow Light Snow
2:34 PM 19.4 °F - 15.8 °F 86% 30.06 in 1.2 mi Calm Calm - 0.01 in Snow Light Snow
2:48 PM 19.4 °F - 15.8 °F 86% 30.05 in 2.0 mi Calm Calm - 0.01 in Snow Light Snow
2:53 PM 19.9 °F - 15.1 °F 81% 30.09 in 2.5 mi Calm Calm - 0.01 in Snow Light Snow
3:01 PM 19.4 °F - 15.8 °F 86% 30.05 in 4.0 mi Calm Calm - 0.00 in   Overcast
3:53 PM 21.0 °F - 15.1 °F 78% 30.09 in 9.0 mi Calm Calm - 0.00 in   Overcast
4:53 PM 21.0 °F - 16.0 °F 81% 30.09 in 3.0 mi Calm Calm - N/A   Haze
5:53 PM 21.0 °F - 16.0 °F 81% 30.10 in 10.0 mi Calm Calm - N/A   Overcast
6:09 PM 21.2 °F - 15.8 °F 80% 30.07 in 9.0 mi Calm Calm - N/A   Overcast
6:53 PM 21.0 °F 16.2 °F 16.0 °F 81% 30.12 in 10.0 mi SSW 3.5 mph - N/A   Overcast
7:53 PM 21.0 °F 16.2 °F 16.0 °F 81% 30.13 in 10.0 mi SSW 3.5 mph - N/A   Overcast
8:53 PM 21.0 °F 14.6 °F 17.1 °F 85% 30.14 in 10.0 mi SSW 4.6 mph - N/A   Overcast
9:21 PM 21.2 °F 13.6 °F 17.6 °F 86% 30.12 in 9.0 mi SW 5.8 mph - N/A   Overcast
9:44 PM 21.2 °F 16.4 °F 17.6 °F 86% 30.13 in 9.0 mi SW 3.5 mph - N/A   Overcast
9:53 PM 21.9 °F 17.2 °F 18.0 °F 85% 30.17 in 9.0 mi Variable 3.5 mph - N/A   Overcast
10:23 PM 21.2 °F 16.4 °F 17.6 °F 86% 30.15 in 8.0 mi SW 3.5 mph - N/A   Overcast
10:37 PM 21.2 °F 16.4 °F 17.6 °F 86% 30.15 in 8.0 mi SW 3.5 mph - N/A   Overcast
10:53 PM 21.9 °F 15.7 °F 18.0 °F 85% 30.18 in 7.0 mi South 4.6 mph - N/A   Overcast
11:06 PM 21.2 °F 13.6 °F 17.6 °F 86% 30.16 in 7.0 mi West 5.8 mph - N/A   Overcast
11:38 PM 23.0 °F 15.8 °F 19.4 °F 86% 30.16 in 8.0 mi WSW 5.8 mph - N/A   Overcast
11:53 PM 23.0 °F 18.4 °F 19.0 °F 85% 30.20 in 8.0 mi WSW 3.5 mph - N/A   Overcast